Main page
METAR-TAF:

METAR-TAF

Airports :

Fayette Regional Air Center

La Grange, Texas, United States

latitude: 29-54-29N, longitude: 096-57-00W, elevation: 325 ft

Current weather observation

The report was made 16 minutes ago, at 06:35 UTC
Calm wind
Temperature 50°F
Humidity 93%
Pressure 29.82 in. Hg
Visibility: 10 miles
Clear sky

METAR: K3T5 250635Z AUTO 00000KT 10SM CLR 10/09 A2982 RMK AO2 T01040090

Time: 00:51 (06:51 UTC)


TAF: missing

Weather observations and forecasts of more than 4000 airports (METAR and TAF reports).

The available stations are represented by yellow and red dots on the map.

Hover mouse over dot to see the name of the station.

Then click to see weather observations and forecasts.

To change the map : click on the green buttons with a black cross to zoom in, on the green button with a dash to zoom out, or on the green arrows for adjacent maps.


METAR-TAF: